Kindakun Rocks, British Columbia

8:54 PM PST on February 22, 2018 (GMT -0800)
Kindakun Rocks

Weather History for CWQS - December, 2012

Change the Weather History Date:

Monday, December 3, 2012

  Actual Average (CYZP) Record (CYZP)
Temperature  
Mean Temperature 41 °F -  
Max Temperature 44 °F 43 °F 51 °F (1997)
Min Temperature 38 °F 35 °F 23 °F (2007)
Degree Days  
Heating Degree Days 24    
Moisture  
Dew Point 35 °F    
Average Humidity 74    
Maximum Humidity 87    
Minimum Humidity 61    
Precipitation  
Precipitation 0.08 in - - ()
Sea Level Pressure  
Sea Level Pressure 29.29 in    
Wind  
Wind Speed 17 mph ()    
Max Wind Speed 30 mph    
Max Gust Speed 40 mph    
Averages and records for this station are not official NWS values.
T = Trace of Precipitation, MM = Missing Value Source: Averaged Metar Reports

Daily Weather History Graph

Daily Weather History Graph

Search for Another Location

Airport or City:

Trip Planner

Search our weather history database for the weather conditions in past years. The results will help you decide how hot, cold, wet, or windy it might be!

Date:

Astronomy

Dec. 03, 2012 Rise Set
Actual Time 8:47 AM PST 4:35 PM PST
Civil Twilight 8:05 AM PST 5:16 PM PST
Nautical Twilight 7:20 AM PST 6:01 PM PST
Astronomical Twilight 6:38 AM PST 6:43 PM PST
Moon 9:54 PM PST (12/3) 11:51 AM PST (12/3)
Length of Visible Light 9h 11m
Length of Day
7h 48m
Waning Gibbous, 77% of the Moon is Illuminated
Dec 3
Waning Gibbous
Dec 6
Last Quarter
Dec 13
New
Dec 19
First Quarter
Dec 28
Full

Hourly Weather History & Observations

Time (PST) Temp. Windchill Dew Point Humidity Pressure Visibility Wind Dir Wind Speed Gust Speed Precip Events Conditions
12:00 AM 41.5 °F 33.2 °F 33.8 °F 74% 29.25 in - SSW 17.3 mph - N/A   Unknown
1:00 AM 41 °F - 35 °F 71% 29.26 in - South 13.8 mph - -  
1:00 AM 41.4 °F 34.0 °F 34.9 °F 78% 29.26 in - South 13.8 mph - N/A   Unknown
2:00 AM 39.4 °F 31.1 °F 34.5 °F 83% 29.29 in - South 15.0 mph 20.7 mph 0.03 in   Unknown
3:00 AM 41.2 °F 33.7 °F 34.0 °F 76% 29.31 in - SW 13.8 mph - N/A   Unknown
4:00 AM 40 °F - 34 °F 72% 29.34 in - West 20.7 mph - -  
4:00 AM 40.5 °F 30.9 °F 34.2 °F 78% 29.34 in - West 20.7 mph - N/A   Unknown
5:00 AM 42.1 °F 33.6 °F 33.6 °F 72% 29.33 in - SSW 18.4 mph - N/A   Unknown
6:00 AM 42.6 °F 34.6 °F 33.6 °F 70% 29.34 in - SW 17.3 mph - N/A   Unknown
7:00 AM 42 °F - 35 °F 67% 29.35 in - SW 19.6 mph - -  
7:00 AM 41.5 °F 32.6 °F 34.7 °F 77% 29.35 in - SW 19.6 mph - N/A   Unknown
9:00 AM 39.4 °F 29.0 °F 34.3 °F 82% 29.38 in - South 23.0 mph 33.4 mph 0.01 in   Unknown
10:00 AM 43 °F - 35 °F 65% 29.37 in - South 26.5 mph - -  
10:00 AM 43.2 °F 33.4 °F 35.2 °F 74% 29.37 in - South 26.5 mph 33.4 mph N/A   Unknown
11:00 AM 41.5 °F 31.9 °F 35.1 °F 78% 29.39 in - South 23.0 mph - 0.01 in   Unknown
12:00 PM 41.5 °F 31.4 °F 34.9 °F 77% 29.37 in - South 25.3 mph 40.3 mph N/A   Unknown
1:00 PM 43 °F - 34 °F 61% 29.34 in - SSE 19.6 mph - -  
1:00 PM 43.0 °F 34.5 °F 34.2 °F 71% 29.34 in - SSE 19.6 mph 27.6 mph N/A   Unknown
2:00 PM 41.4 °F 32.4 °F 35.2 °F 79% 29.31 in - SSE 19.6 mph 28.8 mph 0.04 in   Unknown
3:00 PM 41.2 °F 30.1 °F 35.8 °F 81% 29.28 in - SSE 29.9 mph 39.1 mph 0.04 in   Unknown
4:00 PM 42 °F - 36 °F 72% 29.25 in - SSE 26.5 mph - -  
4:00 PM 41.5 °F 31.2 °F 36.1 °F 81% 29.25 in - SSE 26.5 mph 34.5 mph 0.01 in   Unknown
5:00 PM 41.4 °F 31.4 °F 37.6 °F 86% 29.24 in - SSW 24.2 mph 31.1 mph 0.05 in   Unknown
6:00 PM 42.6 °F 34.0 °F 39.0 °F 87% 29.23 in - South 19.6 mph 29.9 mph N/A   Unknown
7:00 PM 44 °F - 36 °F 65% 29.22 in - SSW 21.9 mph - -  
7:00 PM 44.1 °F 35.4 °F 36.1 °F 74% 29.22 in - SSW 21.9 mph - N/A   Unknown
8:00 PM 41.7 °F 31.6 °F 34.9 °F 77% 29.21 in - SW 25.3 mph - N/A   Unknown
9:00 PM 43.2 °F 35.3 °F 34.0 °F 70% 29.19 in - SSW 17.3 mph - N/A   Unknown
10:00 PM 43 °F - 34 °F 61% 29.17 in - SSW 15.0 mph - -  
10:00 PM 43.2 °F 35.9 °F 34.2 °F 71% 29.17 in - SSW 15.0 mph - N/A   Unknown
11:00 PM 41.4 °F 33.0 °F 34.7 °F 77% 29.16 in - SSE 17.3 mph - N/A   Unknown